Temperature
20 20 19 19 18 18 21 21 21 21 21 20 20 20 20 20 20 20 19 20 20 20 19 19 19 20 20 20 20 20 20 20 20 19 19 19 19 19 19 19 19 19 19 18 18 18 18 18 18
20 20 19 19 19 20 21 21 21 21 21 21 21 20 20 19 19 19 19 20 20 20 20 19 19 20 20 20 20 20 20 19 19 19 19 19 19 19 19 19 19 19 19 18 18 18 18 18 18
20 20 19 17 19 20 22 22 21 21 21 21 21 20 20 19 19 19 19 20 20 20 20 20 20 20 20 20 20 20 20 19 19 19 19 19 19 19 19 19 19 19 19 18 18 18 18 18 18
20 20 19 18 20 21 22 22 21 21 21 21 21 20 20 20 20 20 20 20 20 20 20 20 20 19 20 20 20 20 20 19 19 19 19 19 19 19 19 19 19 19 19 18 18 18 18 18 17
20 20 18 18 20 21 22 22 22 21 21 20 20 20 19 20 20 20 20 20 20 20 19 19 19 19 19 19 19 19 19 19 19 19 19 19 19 18 18 18 18 18 18 18 18 18 18 18 17
20 18 18 19 20 22 22 22 21 21 20 20 20 19 18 19 20 20 20 20 20 20 19 19 19 19 19 19 19 19 19 19 19 19 19 19 18 18 18 18 18 18 18 18 18 18 18 18 17
20 17 19 20 21 22 22 21 21 20 20 20 20 19 18 18 19 20 20 19 19 19 19 19 19 19 19 19 19 19 19 19 19 19 18 18 18 18 18 18 18 18 18 18 18 18 18 17 17
21 17 19 19 21 22 22 21 20 20 20 20 20 19 18 18 19 19 19 19 19 19 19 19 19 19 19 19 19 19 19 19 18 18 18 18 18 18 18 18 18 17 17 18 17 17 18 17 17
21 18 18 20 21 22 21 20 20 20 19 19 19 19 19 19 18 19 19 19 19 19 19 19 19 19 19 19 19 19 18 18 18 18 18 18 18 17 17 17 17 17 17 17 17 17 17 17 17
21 18 20 21 22 21 21 20 20 19 18 18 19 19 19 19 18 19 19 19 19 19 19 19 19 19 19 19 19 18 18 18 18 18 18 17 17 17 17 17 17 17 17 17 17 17 17 17 17
20 19 21 22 23 22 21 20 19 19 18 19 19 19 19 19 18 19 19 19 19 19 19 19 19 19 19 19 18 18 18 18 18 18 17 17 17 17 17 17 17 17 17 17 17 17 17 17 17
20 21 22 23 23 22 20 19 19 19 19 20 20 19 19 19 18 19 19 19 19 19 19 19 19 18 18 18 18 18 18 18 18 17 17 17 17 17 17 17 17 16 16 16 16 16 16 17 17
22 22 23 22 22 21 20 19 19 18 19 19 19 18 18 18 18 18 19 19 19 19 19 19 18 18 18 18 18 18 18 18 17 17 17 17 17 17 16 16 16 16 16 16 16 16 16 16 16
23 23 22 22 21 21 19 18 18 18 19 18 18 18 18 18 18 18 19 19 19 19 19 19 19 18 18 18 18 18 18 18 17 17 17 17 16 16 16 16 16 16 16 16 16 16 16 16 16
23 22 21 21 21 20 19 19 18 18 18 18 18 18 18 18 18 18 19 19 19 19 19 19 18 18 18 18 18 18 18 17 17 17 17 16 16 16 16 15 15 15 15 15 15 15 15 15 15
22 21 21 21 20 20 20 20 19 18 18 17 18 18 18 18 18 18 18 19 19 19 19 18 18 18 18 18 18 18 17 17 17 17 16 16 16 16 15 15 15 15 15 15 14 14 14 14 15
21 21 21 21 21 20 20 19 18 18 18 17 18 18 18 18 18 18 18 18 18 18 18 18 18 18 18 18 17 17 17 17 17 16 16 16 16 15 15 15 15 14 14 14 14 14 14 14 14
21 21 21 21 21 20 19 18 17 17 17 17 18 18 18 18 18 18 18 18 18 18 18 18 18 18 18 17 17 17 17 16 16 16 16 15 15 15 15 14 14 14 14 14 14 13 13 14 14
22 22 21 21 21 20 19 18 17 17 17 17 17 17 18 18 18 18 18 18 18 18 18 18 18 18 18 17 17 17 17 16 16 16 15 15 15 15 14 14 14 14 13 13 13 13 13 13 13
21 21 21 21 21 20 19 18 18 17 17 17 17 18 18 18 18 18 18 18 18 18 18 18 18 18 18 17 17 17 17 16 16 16 15 15 15 14 14 14 13 13 13 13 13 13 13 13 13
22 21 21 21 20 19 19 19 18 17 17 17 18 18 18 18 18 18 18 18 18 18 18 18 18 18 18 17 17 17 17 16 16 16 15 15 14 14 14 13 13 13 13 13 12 12 12 12 12
22 22 22 21 19 18 19 18 18 17 17 17 17 17 18 18 18 18 19 18 18 18 18 18 18 18 18 17 17 17 17 17 16 16 15 15 14 14 14 13 13 13 12 12 12 12 12 12 12
22 21 20 19 18 18 18 18 17 17 17 17 17 18 18 18 19 19 19 19 19 19 18 18 18 18 18 17 17 17 17 16 16 15 15 14 14 14 13 13 13 13 12 12 12 12 12 12 12
21 20 18 16 16 18 18 18 18 17 17 18 17 18 19 19 19 19 19 19 19 19 18 18 18 18 18 17 17 17 16 16 16 15 15 14 14 14 13 13 13 12 12 12 12 11 11 11 11
21 19 18 19 17 18 18 17 17 18 18 18 18 19 19 20 19 19 19 19 19 19 19 19 19 18 18 18 17 17 16 16 16 15 15 14 14 14 13 13 13 12 12 12 12 11 11 11 11
21 20 19 20 19 18 18 18 18 19 20 20 20 20 20 20 20 20 20 20 19 19 19 19 19 19 18 18 17 17 16 16 16 15 15 14 14 14 13 13 13 12 12 12 12 11 11 11 11
20 19 18 17 18 18 18 18 19 19 19 19 19 19 20 20 21 20 20 20 20 20 20 20 19 19 18 18 18 17 17 16 16 15 15 14 14 14 13 13 13 12 12 12 12 12 11 11 11
20 17 16 17 18 19 19 19 19 20 20 18 18 19 20 21 21 21 21 21 21 21 20 20 20 19 19 18 18 17 17 16 16 15 15 14 14 14 13 13 13 12 12 12 12 12 11 11 11
20 19 16 15 16 17 18 19 19 19 19 19 18 20 21 21 22 22 22 21 21 21 21 20 20 19 19 18 18 17 17 16 16 15 15 15 14 14 14 13 13 13 12 12 12 12 11 11 11
21 19 16 18 18 16 17 18 20 19 19 19 20 21 22 22 22 22 22 22 21 21 21 21 20 20 19 19 18 18 17 17 16 16 15 15 15 14 14 13 13 13 13 13 12 12 12 12 11
Wind_Speed
5 3 1 1 4 4 1 2 3 3 2 1 3 3 3 1 3 3 2 8 14 13 16 20 20 20 20 19 19 19 18 17 16 16 15 14 13 12 11 11 10 10 10 10 10 10 10 10 10
4 2 1 3 4 2 3 2 3 4 5 5 3 3 2 1 2 3 5 8 13 13 15 18 20 19 19 19 18 18 17 16 15 14 13 13 12 11 10 10 9 9 9 9 9 10 10 9 9
3 1 3 4 2 2 2 3 4 3 6 5 4 3 2 1 4 4 6 11 11 11 14 18 20 19 18 18 17 17 16 15 14 13 12 12 11 10 9 9 9 8 8 8 8 8 9 8 8
2 3 4 4 2 4 4 4 5 5 3 3 4 4 2 1 3 7 13 13 12 9 13 17 20 19 18 17 16 16 15 14 13 12 11 11 10 9 8 8 7 7 7 7 7 7 7 7 7
3 4 4 3 4 4 3 3 7 5 4 4 4 4 2 3 8 15 14 13 12 9 11 16 19 18 17 16 16 15 14 14 13 12 11 10 9 8 8 7 6 6 6 6 6 6 6 6 5
4 4 4 3 5 3 1 1 4 4 3 4 4 4 2 4 10 13 12 11 10 9 9 13 17 17 16 16 15 14 13 13 12 11 10 9 8 7 6 6 6 5 5 4 5 5 4 4 4
4 4 1 3 4 3 1 1 2 4 4 3 4 5 3 5 8 12 11 10 8 8 8 9 13 15 15 15 14 13 13 12 11 10 9 8 7 6 5 5 4 5 4 4 3 3 3 2 2
4 4 1 3 4 4 2 2 1 2 2 2 3 5 5 7 9 12 12 10 8 6 6 6 9 11 12 13 13 12 12 11 10 9 8 7 6 5 5 4 4 4 4 4 4 3 3 2 1
4 3 3 5 5 4 3 3 1 1 2 1 1 1 5 13 13 13 12 10 9 9 6 5 6 8 10 10 11 11 11 10 9 8 7 5 3 2 2 3 4 4 4 4 4 4 3 2 1
4 3 7 5 5 5 4 4 4 3 2 1 1 3 10 14 14 14 14 13 12 11 9 6 6 7 8 8 8 8 7 7 7 5 5 4 3 2 1 0 1 1 0 1 1 2 1 1 1
7 7 6 5 5 4 4 3 3 5 3 5 6 9 12 13 12 12 13 12 10 9 8 7 7 7 7 5 7 6 6 6 6 5 5 5 4 4 4 4 4 3 3 2 2 2 2 1 1
6 6 5 4 2 4 6 5 3 3 3 3 7 12 13 13 12 10 10 9 8 9 8 7 6 6 6 6 6 6 5 5 5 5 6 6 4 4 4 4 4 4 3 3 2 2 2 2 2
5 5 3 3 1 3 5 4 3 2 2 4 8 9 11 11 9 7 6 6 6 7 7 7 7 6 5 5 4 5 5 5 6 6 6 7 5 4 4 4 5 5 4 3 2 2 2 2 3
4 2 2 1 1 2 4 2 1 2 4 7 8 8 9 9 9 6 6 6 7 7 7 7 7 6 6 5 4 4 6 7 7 6 6 7 7 6 5 4 4 4 4 3 3 3 2 2 2
1 2 3 0 1 2 5 0 3 3 4 5 6 7 7 6 7 7 7 7 8 8 7 7 7 6 7 6 5 6 7 7 6 7 7 8 9 8 6 4 3 4 5 5 5 4 4 3 2
3 3 3 4 3 3 4 5 2 4 5 3 3 4 5 5 6 6 6 6 6 7 7 7 8 7 7 6 6 6 7 7 6 8 8 8 8 8 7 4 3 4 5 5 3 3 3 3 3
5 3 5 5 3 3 4 5 2 4 5 4 4 4 4 4 5 5 6 6 6 7 8 7 7 8 7 7 6 6 6 6 6 7 7 7 8 8 8 5 4 5 5 3 2 3 2 2 3
6 5 6 6 2 2 3 4 3 4 5 5 5 5 4 5 5 6 7 6 6 7 8 8 7 7 7 6 5 5 4 3 4 5 6 7 7 8 8 5 5 5 4 3 3 3 3 2 2
6 6 9 6 0 2 3 3 5 5 5 5 4 5 5 5 5 7 8 8 8 8 8 8 8 7 7 5 5 4 3 2 2 3 5 6 7 7 7 5 4 4 3 2 2 2 3 4 3
6 6 6 2 1 1 1 3 4 6 6 6 6 6 6 5 4 6 8 8 9 10 9 8 8 8 7 5 4 3 4 3 2 2 3 5 6 6 6 5 3 3 3 3 3 2 2 3 3
4 6 5 4 1 3 2 5 2 3 3 4 5 5 6 8 8 8 9 9 9 10 11 10 9 8 7 6 5 5 4 4 2 2 1 2 4 5 5 6 4 3 3 2 2 2 2 2 2
5 4 4 4 2 3 3 4 5 3 3 6 7 7 7 7 8 9 9 10 10 10 9 9 9 8 7 8 7 7 5 4 4 3 2 1 2 3 5 6 5 4 3 3 2 2 1 2 1
3 4 5 4 4 2 3 0 7 1 5 8 9 9 9 9 9 10 11 11 10 10 10 9 9 8 7 7 8 7 5 3 3 2 2 1 0 1 3 5 5 4 3 3 3 2 2 1 1
5 6 6 6 5 2 2 1 6 4 7 6 7 10 10 10 9 9 8 8 8 8 9 9 9 7 7 8 8 8 8 6 5 3 3 2 1 1 2 4 4 4 3 3 3 3 3 2 2
4 5 5 5 5 5 2 2 8 7 7 8 8 10 10 10 10 9 10 10 10 10 10 10 10 8 8 8 8 8 8 8 7 6 5 4 2 2 3 3 3 3 4 4 4 3 3 3 3
4 6 6 4 4 5 3 5 8 6 5 5 6 7 8 9 10 11 11 11 11 11 10 10 11 9 9 9 8 7 8 6 5 6 5 5 4 4 3 4 4 4 4 4 4 3 3 3 3
5 3 5 6 2 2 6 7 8 2 2 3 5 6 8 9 10 10 10 10 10 11 11 12 11 10 9 9 8 8 8 7 7 6 5 4 4 3 4 4 4 4 4 4 4 3 3 3 4
4 8 6 5 3 3 6 5 5 6 5 5 6 8 9 8 9 10 10 11 10 11 10 10 11 11 10 10 9 8 8 8 7 6 6 6 5 4 4 5 4 4 4 4 4 3 3 4 4
5 5 5 5 4 5 3 7 7 9 8 9 10 11 11 11 12 11 11 11 10 9 9 10 11 10 10 10 9 9 8 8 7 7 7 7 6 6 6 6 5 5 5 4 4 5 4 5 5
5 7 8 5 4 4 3 8 6 7 7 8 9 10 10 11 11 11 10 9 9 10 10 11 11 11 11 11 10 10 8 8 8 8 8 7 7 7 7 6 5 6 5 5 5 6 6 6 6
Wind_Direction
174 163 116 56 56 47 295 217 167 149 145 145 109 106 118 179 235 257 107 137 135 141 151 152 149 144 139 136 134 133 132 131 130 129 128 128 127 125 125 123 122 119 116 114 110 109 107 105 105
145 150 48 56 77 39 292 210 171 172 163 148 122 92 77 96 117 110 126 140 138 141 147 152 150 147 143 140 138 137 135 134 133 133 132 131 131 129 128 126 122 120 118 116 114 112 110 107 106
155 125 80 69 93 192 249 210 179 158 143 141 130 100 86 136 134 137 144 137 131 138 146 155 153 150 147 144 142 141 139 138 137 137 137 137 135 135 132 130 127 123 120 120 117 115 112 110 107
108 50 55 65 277 240 223 210 175 150 125 112 125 113 121 31 146 140 137 138 135 135 147 157 156 153 151 149 147 144 143 143 143 142 142 144 144 143 141 137 132 127 125 123 123 120 116 113 106
64 73 50 6 281 268 262 210 173 160 151 139 135 126 92 15 116 131 137 141 140 136 146 157 157 155 153 151 150 149 149 149 149 150 151 152 153 152 149 147 143 139 135 133 131 126 122 117 106
58 65 65 318 295 286 318 134 147 135 139 138 137 125 91 112 125 132 135 135 137 137 140 154 157 156 155 154 153 153 153 153 154 157 158 159 161 162 161 158 156 154 150 145 141 137 131 119 104
105 98 174 264 283 285 212 120 150 152 156 164 145 131 128 143 139 132 131 130 132 134 134 142 154 156 157 157 158 158 157 158 159 161 163 164 165 167 167 168 173 173 170 172 172 167 157 140 115
135 104 300 271 254 258 165 134 91 131 160 132 142 154 164 161 143 134 134 135 138 135 132 132 139 146 152 158 161 160 160 161 162 164 168 175 178 183 188 189 200 204 205 207 211 210 211 209 192
116 75 256 238 224 236 164 162 158 95 120 108 67 145 141 140 140 137 137 142 154 156 145 136 134 140 146 154 162 162 162 164 163 166 170 167 152 162 204 223 221 226 230 233 238 243 239 235 262
123 176 236 227 214 203 181 180 169 155 158 162 93 107 134 142 151 154 158 164 169 169 164 151 148 149 150 158 154 153 152 154 151 151 150 138 122 111 98 6 201 178 172 244 264 254 285 316 333
177 210 244 253 227 193 172 166 166 159 210 201 176 156 153 153 163 167 169 173 172 167 167 164 163 161 156 148 145 142 136 135 133 132 128 119 105 87 71 60 49 54 58 52 34 39 32 21 359
200 249 243 264 221 166 161 157 167 194 219 183 155 155 161 163 173 176 174 171 163 162 172 167 169 166 163 154 149 143 138 134 129 129 131 122 108 90 80 73 63 61 62 60 53 50 22 8 6
220 261 261 240 185 137 124 152 163 207 163 131 134 142 160 170 169 171 180 166 159 165 171 167 170 169 163 152 149 145 142 140 137 130 128 128 117 106 95 78 67 59 59 62 57 49 35 23 15
240 249 283 289 89 124 133 137 126 222 146 132 140 151 163 168 163 163 170 173 174 172 174 166 167 169 161 152 144 145 149 146 135 132 131 126 122 118 107 88 72 60 57 66 72 66 62 45 29
297 341 333 341 95 134 116 53 225 186 147 144 153 158 161 164 163 169 177 175 179 174 169 166 168 162 157 149 150 149 147 142 136 135 132 129 127 123 115 98 80 65 70 79 77 64 57 44 28
23 32 324 276 180 172 152 243 215 163 156 159 164 170 169 172 175 175 166 168 173 164 160 168 173 159 152 144 139 137 137 138 136 135 135 133 129 127 115 101 87 78 75 75 78 54 55 38 23
20 333 289 289 206 169 189 241 212 168 169 179 188 184 166 176 182 171 165 172 172 169 159 161 158 155 146 133 126 123 127 130 132 135 136 135 131 128 117 108 100 93 76 62 67 55 56 36 5
275 283 280 275 251 163 209 243 210 184 190 199 198 186 169 172 185 177 174 172 166 164 157 154 150 145 131 119 108 98 96 100 123 137 142 142 138 132 120 111 103 96 81 61 57 65 50 39 350
243 249 268 275 266 164 233 239 214 196 205 211 206 194 185 178 167 167 168 170 162 157 156 158 153 148 140 133 130 128 132 129 124 148 152 150 145 138 130 121 110 97 92 82 75 78 56 30 2
225 248 258 281 51 128 280 276 221 201 212 215 211 200 192 184 169 168 163 163 167 166 167 163 161 158 158 148 138 132 129 130 126 120 142 160 158 153 150 142 132 119 107 84 71 76 81 34 26
245 213 226 213 71 46 2 320 251 229 220 224 227 208 197 193 185 182 173 172 169 172 175 173 169 163 159 140 117 100 86 76 86 110 143 175 176 175 170 163 151 142 131 124 109 98 106 81 28
259 249 185 142 113 330 32 301 287 234 239 227 222 213 209 202 190 185 180 178 180 182 176 170 167 163 158 150 148 148 153 164 183 172 172 168 175 184 184 179 170 160 151 152 157 129 112 118 71
199 58 80 87 102 21 16 267 291 283 247 239 221 214 211 203 193 191 189 187 186 178 173 170 163 162 160 161 161 152 149 156 142 130 145 155 150 209 197 186 176 170 169 174 163 142 136 135 146
129 77 60 54 62 349 294 214 285 241 227 229 214 209 205 200 194 194 189 180 178 171 169 166 164 169 167 166 164 163 162 159 153 160 172 186 209 249 204 180 179 181 183 186 183 172 169 175 171
91 87 26 358 3 269 264 238 256 252 230 214 208 204 199 194 190 188 184 183 180 177 176 173 172 178 176 171 172 174 172 170 175 180 186 185 191 210 211 183 184 191 201 200 186 182 191 191 192
176 144 156 211 242 285 302 252 259 260 244 219 205 197 188 188 190 191 190 188 186 184 182 179 182 186 180 178 180 177 174 173 182 184 183 189 198 209 206 194 200 206 206 203 191 197 206 202 210
138 149 150 131 138 301 289 288 302 272 210 200 186 181 194 196 195 195 191 190 188 188 188 189 188 189 186 184 178 179 180 181 187 187 185 192 202 209 202 200 204 211 210 207 195 213 221 213 223
130 141 105 119 147 273 296 285 256 256 221 194 193 197 204 202 201 201 198 197 197 196 191 187 190 193 188 183 185 189 189 191 189 182 193 201 206 204 197 205 211 217 218 213 205 222 228 225 236
126 112 109 114 149 165 259 276 230 222 214 200 206 204 200 200 205 206 205 202 198 192 186 188 192 189 186 188 188 185 189 190 188 193 203 204 204 203 205 210 214 222 227 220 213 228 232 236 247
166 166 148 153 207 181 195 268 273 228 223 207 211 210 202 202 205 205 202 194 192 194 193 193 193 194 194 188 185 190 189 186 193 203 208 203 207 209 209 211 218 227 231 225 224 238 238 236 247
Height
1514 1514 1515 1516 1518 1525 1525 1519 1515 1515 1515 1515 1514 1515 1517 1519 1522 1526 1520 1520 1525 1528 1532 1535 1539 1541 1543 1545 1547 1548 1549 1550 1551 1553 1554 1555 1556 1556 1557 1557 1558 1558 1559 1559 1559 1560 1560 1560 1561
1514 1515 1516 1517 1523 1532 1526 1516 1515 1512 1511 1512 1514 1514 1515 1517 1518 1518 1519 1522 1526 1529 1533 1536 1539 1542 1544 1546 1548 1549 1550 1552 1553 1554 1555 1556 1557 1558 1558 1559 1559 1560 1560 1561 1561 1561 1562 1562 1563
1514 1515 1517 1518 1524 1528 1521 1512 1511 1510 1510 1511 1513 1514 1516 1517 1517 1517 1519 1522 1527 1531 1534 1537 1540 1543 1545 1547 1548 1550 1551 1553 1554 1555 1556 1557 1558 1559 1560 1560 1561 1561 1562 1562 1563 1563 1563 1564 1564
1515 1517 1518 1522 1523 1517 1512 1508 1508 1508 1509 1510 1511 1514 1515 1517 1517 1518 1520 1524 1528 1532 1535 1538 1541 1543 1546 1548 1549 1551 1552 1553 1555 1556 1557 1558 1559 1560 1561 1562 1562 1563 1563 1564 1564 1565 1565 1566 1566
1515 1516 1521 1526 1522 1513 1507 1505 1505 1506 1508 1509 1511 1513 1514 1516 1517 1519 1521 1525 1529 1533 1536 1539 1542 1544 1546 1548 1550 1551 1553 1554 1555 1557 1558 1559 1560 1561 1562 1563 1563 1564 1565 1565 1566 1566 1566 1567 1567
1516 1518 1529 1530 1520 1510 1507 1505 1505 1506 1508 1509 1511 1513 1515 1516 1517 1519 1523 1526 1530 1533 1537 1540 1543 1544 1546 1549 1550 1552 1553 1555 1556 1558 1559 1560 1561 1562 1563 1563 1564 1565 1566 1566 1567 1567 1568 1568 1569
1518 1522 1527 1524 1519 1512 1507 1506 1506 1506 1508 1509 1510 1513 1515 1516 1517 1519 1524 1528 1531 1534 1537 1540 1543 1545 1547 1549 1551 1552 1554 1555 1556 1558 1559 1561 1561 1562 1563 1564 1565 1566 1566 1567 1567 1568 1568 1569 1569
1517 1521 1523 1523 1518 1512 1507 1507 1507 1507 1508 1509 1510 1512 1514 1516 1518 1520 1523 1528 1531 1535 1538 1540 1543 1545 1547 1549 1551 1553 1554 1555 1557 1558 1560 1561 1562 1563 1564 1564 1565 1566 1566 1567 1567 1568 1568 1569 1569
1516 1524 1527 1520 1514 1508 1506 1506 1507 1507 1507 1508 1509 1510 1511 1515 1517 1520 1523 1527 1530 1534 1537 1540 1543 1545 1548 1550 1551 1553 1554 1556 1557 1558 1560 1561 1562 1563 1564 1564 1565 1565 1566 1566 1567 1567 1568 1568 1568
1516 1524 1517 1508 1505 1503 1503 1504 1505 1506 1507 1507 1508 1509 1512 1514 1516 1519 1521 1525 1528 1532 1536 1539 1542 1545 1547 1549 1551 1553 1554 1556 1557 1558 1560 1561 1562 1562 1563 1564 1564 1565 1565 1565 1566 1566 1567 1567 1567
1512 1514 1506 1503 1501 1501 1502 1503 1504 1505 1506 1505 1505 1508 1511 1514 1517 1519 1521 1524 1528 1532 1535 1538 1542 1545 1547 1549 1551 1553 1554 1556 1557 1558 1560 1560 1561 1562 1562 1563 1563 1563 1564 1564 1564 1565 1565 1566 1566
1510 1505 1504 1501 1499 1499 1500 1502 1503 1503 1504 1503 1503 1505 1509 1512 1516 1518 1521 1525 1529 1532 1535 1539 1542 1545 1547 1549 1551 1553 1554 1556 1557 1558 1559 1560 1561 1561 1562 1562 1562 1562 1563 1563 1563 1563 1563 1564 1564
1507 1504 1501 1499 1498 1499 1500 1501 1502 1502 1502 1502 1504 1506 1509 1511 1516 1519 1522 1526 1529 1532 1535 1539 1542 1545 1547 1549 1551 1553 1554 1556 1557 1558 1559 1559 1560 1560 1561 1561 1561 1561 1561 1561 1561 1561 1561 1562 1562
1503 1502 1500 1499 1498 1499 1500 1502 1503 1501 1502 1503 1504 1507 1509 1513 1515 1519 1522 1525 1528 1531 1535 1539 1542 1545 1547 1549 1550 1552 1554 1555 1556 1557 1558 1559 1559 1559 1559 1560 1559 1559 1560 1560 1560 1559 1559 1559 1560
1502 1503 1501 1500 1499 1500 1502 1505 1503 1501 1502 1503 1504 1506 1509 1512 1515 1518 1521 1524 1528 1531 1534 1538 1541 1544 1546 1548 1550 1552 1553 1555 1556 1557 1557 1558 1558 1558 1558 1558 1558 1558 1558 1558 1558 1558 1557 1557 1557
1502 1506 1509 1501 1499 1500 1505 1508 1501 1501 1502 1503 1505 1506 1508 1511 1514 1517 1520 1523 1527 1530 1534 1538 1541 1543 1545 1547 1549 1551 1553 1554 1555 1556 1557 1557 1557 1558 1558 1557 1557 1557 1557 1556 1556 1556 1556 1556 1556
1510 1515 1512 1504 1498 1499 1503 1505 1501 1501 1502 1503 1504 1506 1508 1511 1513 1517 1520 1523 1526 1530 1533 1537 1540 1542 1544 1547 1549 1551 1553 1554 1555 1556 1556 1557 1557 1557 1557 1557 1556 1556 1555 1555 1555 1554 1554 1554 1554
1516 1514 1510 1506 1499 1499 1503 1503 1500 1500 1501 1502 1503 1505 1507 1509 1512 1515 1519 1522 1526 1529 1533 1536 1539 1541 1543 1546 1548 1550 1552 1553 1555 1555 1556 1557 1557 1557 1556 1556 1555 1555 1554 1554 1553 1553 1553 1553 1553
1504 1509 1510 1503 1497 1500 1502 1502 1501 1500 1501 1502 1502 1504 1506 1508 1512 1515 1518 1521 1525 1528 1531 1534 1537 1540 1542 1544 1547 1549 1551 1553 1554 1555 1555 1556 1556 1556 1556 1555 1555 1554 1553 1553 1552 1552 1552 1552 1551
1503 1508 1506 1500 1497 1500 1503 1502 1499 1499 1499 1499 1501 1503 1505 1507 1510 1513 1517 1520 1524 1527 1530 1533 1536 1539 1541 1544 1546 1548 1550 1552 1553 1554 1555 1555 1556 1555 1555 1555 1554 1553 1553 1552 1552 1551 1551 1551 1550
1500 1504 1502 1502 1500 1501 1504 1505 1501 1499 1499 1499 1500 1501 1503 1505 1508 1512 1515 1518 1522 1525 1528 1531 1535 1538 1541 1543 1546 1548 1549 1551 1552 1553 1554 1554 1555 1555 1554 1554 1554 1553 1553 1552 1551 1551 1551 1550 1550
1501 1493 1494 1499 1507 1513 1510 1520 1503 1499 1499 1498 1498 1499 1501 1503 1506 1510 1513 1516 1519 1523 1527 1530 1534 1537 1540 1542 1545 1547 1548 1549 1550 1551 1552 1553 1553 1553 1553 1553 1553 1553 1552 1552 1551 1550 1550 1550 1549
1494 1493 1497 1503 1509 1516 1514 1519 1510 1500 1500 1496 1495 1496 1498 1501 1504 1507 1511 1514 1518 1522 1525 1529 1533 1536 1539 1541 1544 1546 1547 1548 1549 1550 1551 1551 1552 1552 1552 1552 1552 1552 1551 1551 1550 1550 1550 1549 1549
1492 1498 1504 1512 1518 1525 1516 1520 1514 1502 1495 1491 1491 1493 1495 1498 1502 1506 1509 1513 1517 1520 1524 1527 1531 1534 1537 1540 1542 1544 1546 1546 1547 1548 1549 1549 1550 1550 1550 1550 1550 1550 1550 1550 1550 1549 1549 1548 1548
1494 1508 1525 1526 1534 1529 1516 1518 1511 1490 1486 1486 1487 1489 1492 1496 1499 1503 1507 1510 1514 1518 1522 1526 1529 1532 1535 1538 1540 1542 1544 1545 1545 1546 1547 1547 1548 1548 1548 1549 1549 1549 1549 1549 1548 1548 1548 1547 1547
1496 1504 1524 1532 1535 1528 1516 1517 1499 1483 1482 1482 1484 1486 1490 1493 1497 1500 1504 1508 1512 1516 1520 1523 1527 1530 1533 1535 1538 1540 1542 1543 1543 1544 1545 1545 1546 1546 1546 1547 1547 1547 1547 1547 1547 1547 1546 1546 1546
1496 1503 1504 1521 1525 1530 1521 1509 1492 1481 1482 1482 1484 1485 1488 1490 1494 1497 1502 1505 1510 1514 1517 1520 1524 1528 1530 1533 1536 1538 1539 1540 1541 1542 1543 1543 1543 1544 1544 1544 1545 1545 1545 1545 1545 1545 1545 1544 1544
1489 1499 1511 1521 1530 1532 1520 1512 1503 1485 1482 1482 1483 1484 1485 1489 1492 1495 1499 1503 1507 1511 1515 1519 1522 1525 1528 1531 1533 1535 1537 1538 1539 1540 1540 1541 1541 1541 1542 1542 1542 1542 1543 1542 1542 1542 1542 1542 1542
1494 1500 1508 1519 1521 1530 1529 1514 1484 1480 1477 1478 1479 1480 1482 1486 1489 1493 1496 1500 1505 1509 1512 1515 1518 1521 1525 1528 1530 1532 1534 1535 1536 1537 1538 1538 1539 1539 1539 1540 1540 1540 1540 1540 1540 1540 1540 1539 1539
1485 1492 1504 1513 1518 1523 1525 1511 1474 1474 1473 1474 1475 1477 1479 1483 1486 1490 1494 1497 1501 1505 1508 1512 1515 1518 1521 1524 1527 1529 1531 1532 1533 1534 1535 1536 1536 1537 1537 1537 1537 1538 1538 1538 1537 1537 1537 1537 1536